CPA163 VHHH-YMML

Flight info

Callsign CPA163
Flight time N/A
Altitude 33000
Route N0495F330 DALOL V652 UNTUL/N0493F320 V652 SABNO/N0494F330 A583 ZAM A461 BONDA/N0491F350 A461 BUTPA DCT 1500S13310E 1800S13450E/N0482F370 DCT DUNAN DCT 2345S13750E DCT MENIG DCT 3103S14115E 3319S14225E DCT NATYA H119 ARBEY
Aircraft B77W/H-SDE1E2E3FGHIJ2J3J4J5M1RWXY/LB1D1

Departure

Time 2026-05-07 06:00
Airport Hong Kong International Airport (VHHH)

Arrival

Time N/A
Airport Melbourne Airport (YMML)
Time Latitude Longitude Altitude Speed Heading
2026-05-07 05:22 22.31513 113.92489 37 ft 0 kts 206°
2026-05-07 05:47 22.31525 113.92495 36 ft 4 kts 205°
2026-05-07 05:47 22.31550 113.92507 33 ft 4 kts 203°
2026-05-07 05:48 22.31571 113.92516 35 ft 4 kts 210°
2026-05-07 05:48 22.31588 113.92535 34 ft 4 kts 251°
2026-05-07 05:48 22.31594 113.92561 33 ft 2 kts 252°
2026-05-07 05:48 22.31595 113.92562 32 ft 0 kts 252°
2026-05-07 05:51 22.31596 113.92545 33 ft 6 kts 275°
2026-05-07 05:51 22.31619 113.92469 37 ft 13 kts 294°
2026-05-07 05:52 22.31638 113.92378 37 ft 13 kts 259°
2026-05-07 05:52 22.31614 113.92284 37 ft 13 kts 252°
2026-05-07 05:52 22.31585 113.92192 37 ft 13 kts 251°
2026-05-07 05:52 22.31556 113.92100 37 ft 13 kts 251°
2026-05-07 05:53 22.31527 113.92008 37 ft 13 kts 251°
2026-05-07 05:53 22.31495 113.91917 37 ft 13 kts 237°
2026-05-07 05:53 22.31414 113.91898 37 ft 13 kts 160°
2026-05-07 05:53 22.31321 113.91935 37 ft 17 kts 160°
2026-05-07 05:54 22.31179 113.91989 37 ft 23 kts 161°
2026-05-07 05:54 22.31026 113.92046 37 ft 23 kts 161°
2026-05-07 05:54 22.30873 113.92104 37 ft 23 kts 160°
2026-05-07 05:54 22.30720 113.92162 37 ft 23 kts 160°
2026-05-07 05:55 22.30640 113.92120 37 ft 14 kts 241°
2026-05-07 05:55 22.30597 113.91971 37 ft 29 kts 254°
2026-05-07 05:55 22.30531 113.91760 37 ft 30 kts 251°
2026-05-07 05:55 22.30463 113.91550 37 ft 30 kts 251°
2026-05-07 05:56 22.30396 113.91339 37 ft 30 kts 250°
2026-05-07 05:56 22.30326 113.91129 37 ft 30 kts 250°
2026-05-07 05:56 22.30257 113.90920 37 ft 30 kts 251°
2026-05-07 05:56 22.30189 113.90709 37 ft 30 kts 251°
2026-05-07 05:57 22.30122 113.90499 37 ft 30 kts 251°
2026-05-07 05:57 22.30055 113.90289 37 ft 30 kts 251°
2026-05-07 05:57 22.29988 113.90078 37 ft 30 kts 250°
2026-05-07 05:57 22.29919 113.89872 37 ft 30 kts 251°
2026-05-07 05:58 22.29838 113.89736 37 ft 13 kts 186°
2026-05-07 05:58 22.29748 113.89760 37 ft 13 kts 163°
2026-05-07 05:58 22.29658 113.89799 34 ft 15 kts 138°
2026-05-07 05:58 22.29652 113.89905 35 ft 15 kts 71°
2026-05-07 05:59 22.29719 113.90110 35 ft 55 kts 71°
2026-05-07 05:59 22.29921 113.90732 36 ft 119 kts 71°
2026-05-07 05:59 22.30253 113.91766 37 ft 170 kts 70°
2026-05-07 05:59 22.30673 113.93076 233 ft 188 kts 70°
2026-05-07 06:00 22.31093 113.94395 885 ft 188 kts 70°
2026-05-07 06:00 22.31550 113.95762 1246 ft 202 kts 72°
2026-05-07 06:00 22.32008 113.97221 1679 ft 208 kts 73°
2026-05-07 06:00 22.32472 113.98733 2083 ft 218 kts 73°
2026-05-07 06:01 22.32997 114.00336 2353 ft 235 kts 72°
2026-05-07 06:01 22.33544 114.02069 2645 ft 252 kts 72°
2026-05-07 06:01 22.34022 114.03909 3148 ft 257 kts 85°
2026-05-07 06:01 22.33761 114.05843 3466 ft 271 kts 120°
2026-05-07 06:02 22.32489 114.07280 4182 ft 262 kts 153°
2026-05-07 06:02 22.30848 114.08063 4875 ft 259 kts 159°
2026-05-07 06:02 22.29130 114.08770 5367 ft 267 kts 166°
2026-05-07 06:02 22.27304 114.08997 5920 ft 268 kts 186°
2026-05-07 06:03 22.25421 114.08840 6392 ft 275 kts 185°
2026-05-07 06:03 22.23495 114.08749 6944 ft 279 kts 184°
2026-05-07 06:03 22.21551 114.08691 7555 ft 280 kts 183°
2026-05-07 06:03 22.19588 114.08655 8178 ft 282 kts 183°
2026-05-07 06:04 22.17628 114.08741 8725 ft 285 kts 169°
2026-05-07 06:04 22.15837 114.09719 9173 ft 297 kts 139°
2026-05-07 06:04 22.14543 114.11505 9594 ft 310 kts 119°
2026-05-07 06:04 22.13814 114.13719 10102 ft 317 kts 101°
2026-05-07 06:05 22.13695 114.16081 10767 ft 314 kts 85°
2026-05-07 06:05 22.14122 114.18338 11464 ft 310 kts 70°
2026-05-07 06:05 22.15015 114.20452 11991 ft 311 kts 57°
2026-05-07 06:05 22.16288 114.22360 12352 ft 317 kts 47°
2026-05-07 06:06 22.17866 114.24058 12745 ft 322 kts 38°
2026-05-07 06:06 22.19651 114.25509 13307 ft 320 kts 30°